Tracking 32427 objects as of 10-Dec-2025
HD Live streaming from Space Station
objects crossing your sky now

OBJECT G

Track OBJECT G now!
10-day predictions


NORAD ID: 64882
Int'l Code: 2025-155G
Perigee: 490.5 km
Apogee: 503.7 km
Inclination: 97.4 °
Period: 94.4 minutes
Semi major axis: 6868 km
RCS: Unknown
Launch date: July 25, 2025
Source: (TBD)
Launch site: VOSTOCHNY COSMODROME (VOSTO)
Your satellite tracking list
Your tracking list is empty




NASA's NSSDC Master Catalog

Two Line Element Set (TLE):
1 64882U 25155G   25343.58900131  .00014644  00000-0  58354-3 0  9997
2 64882  97.4359 307.3593 0009633 119.8386 240.3810 15.25277149 51810
Source of the keplerian elements: AFSPC